Flag for Germany Weather past 2 weeks in Siegburg, North Rhine-Westphalia, Germany

Now
59 °F

Passing clouds.


Feels Like: 58 °F
Forecast: 45 / 70 °F
Wind: 6 mph from Northeast

Location: Bonn-Hangelar

Current Time: May 22, 2015 at 1:15:44 PM

Latest Report: May 22, 2015 at 12:00 PM


Visibility: 34 mi

Pressure: 30.32 "Hg

Humidity: 58%

Dew point: 44 °F

Location of SiegburgLocation

Historic Weather in Siegburg — Graph

°F

Siegburg temperature yesterday

Maximum temperature yesterday: 60 °F (at 3:00 PM)
Minimum temperature yesterday: 39 °F (at 5:00 AM)
Average temperature yesterday: 50 °F

Past Weeks' High & Low Weather Summary

 TemperatureHumidityPressure
High77 °F (May 11, 6:00 PM)100% (May 15, 6:00 AM)30.37 "Hg (May 15, 6:00 AM)
Low39 °F (May 21, 5:00 AM)36% (May 13, 5:00 PM)29.67 "Hg (May 18, 8:00 PM)
Average54 °F74%30.08 "Hg
* Reported May 7 12:00 Noon — May 22 12:00 Noon, Siegburg, Weather by CustomWeather, © 2015

Note: Actual official high and low records may vary slightly from our data, if they occured in-between our weather recording intervals... More about our weather records

Advertising

Siegburg weather history for previous 24 hours

 ConditionsComfort  
Time TempWeatherWind HumidityBarometerVisibility
12:00 PM
Fri, May 22
59 °FPartly sunny.2 mph58%30.32 "Hg31 mi
11:00 AM58 °FOvercast.2 mph60%30.33 "Hg31 mi
10:00 AM56 °FOvercast.2 mph60%30.34 "Hg31 mi
9:00 AM54 °FPartly sunny.2 mph70%30.34 "Hg31 mi
8:00 AM50 °FPartly sunny.2 mph83%30.34 "Hg28 mi
7:00 AM49 °FOvercast.2 mph83%30.34 "Hg28 mi
6:00 AM47 °FOvercast.2 mph84%30.34 "Hg22 mi
5:00 AM47 °FOvercast.2 mph86%30.34 "Hg17 mi
4:00 AM48 °FOvercast.2 mph81%30.35 "Hg17 mi
3:00 AM49 °FOvercast.2 mph79%30.36 "Hg19 mi
2:00 AM50 °FOvercast.2 mph76%30.36 "Hg25 mi
1:00 AM47 °FPassing clouds.1 mph79%30.37 "Hg19 mi
12:00 AM48 °FOvercast.1 mph80%30.37 "Hg17 mi
11:00 PM
Thu, May 21
50 °FPassing clouds.2 mph75%30.36 "Hg17 mi
10:00 PM52 °FPassing clouds.2 mph73%30.34 "Hg14 mi
9:00 PM57 °FOvercast.5 mph63%30.31 "Hg13 mi
8:00 PM57 °FOvercast.2 mph67%30.30 "Hg17 mi
7:00 PM57 °FOvercast.6 mph58%30.29 "Hg16 mi
6:00 PM58 °FOvercast.3 mph58%30.29 "Hg18 mi
5:00 PM60 °FPartly sunny.6 mph53%30.28 "Hg25 mi
4:00 PM59 °FOvercast.5 mph57%30.29 "Hg25 mi
3:00 PM60 °FPartly sunny.3 mph57%30.29 "Hg28 mi
2:00 PM58 °FScattered clouds.3 mph63%30.29 "Hg16 mi
1:00 PM56 °FScattered clouds.3 mph63%30.29 "Hg25 mi
Weather by CustomWeather, © 2015

See weather overviewHow to use our weather pages